Lid_Strength_Index
13 12 11 11 10 13 14 13 15 12 14 11 11 8 8 7 7 7 6 6 5 5 4 3 3 3 3 2 2 2 2 2 2 1 1 2 3 3 3 3 3 3 3 3
13 12 10 10 10 11 12 14 14 15 14 11 8 8 7 7 7 7 7 5 5 4 4 4 3 3 3 3 2 2 2 2 2 2 2 2 2 3 3 3 3 3 3 3
15 12 12 13 11 11 11 13 13 14 12 11 9 8 7 8 6 6 5 5 5 4 4 3 3 3 3 3 2 2 2 2 2 2 2 2 2 2 3 3 3 3 2 2
14 14 16 12 10 9 10 10 11 12 11 9 8 7 7 6 6 5 5 5 4 4 3 3 3 3 2 2 2 2 2 2 2 2 2 2 2 2 2 1 2 2 1 1
16 16 13 10 9 9 11 9 10 12 8 7 7 7 8 6 5 5 5 4 4 4 4 3 3 2 3 3 2 3 3 2 2 2 2 2 2 2 2 2 1 2 1 1
15 16 17 11 8 7 9 13 8 7 8 8 7 10 9 6 5 5 4 4 4 4 4 3 3 2 3 3 3 3 3 2 2 2 2 2 2 2 1 1 2 1 1 1
15 16 13 9 7 7 13 11 8 7 7 7 8 7 8 5 5 5 4 4 4 4 4 3 2 2 3 3 3 2 2 2 2 2 2 2 2 2 2 2 2 2 2 2
15 17 16 8 8 12 9 7 7 7 7 8 8 6 6 5 5 5 5 4 4 4 4 4 2 3 3 3 2 2 2 2 2 2 1 1 2 2 2 2 2 2 3 4
12 12 9 7 8 7 6 7 6 7 6 7 7 7 6 6 6 5 5 5 4 5 4 3 2 2 3 3 2 2 2 2 2 2 2 1 2 2 2 2 2 3 3 4
11 10 9 8 6 6 6 6 7 6 5 5 6 7 6 5 5 5 5 5 4 6 4 4 3 2 2 2 2 2 3 2 2 2 2 2 2 2 2 2 3 3 3 4
11 9 8 7 6 6 6 6 6 6 6 5 5 5 6 6 6 5 4 4 4 6 4 4 3 3 2 2 2 2 3 2 2 2 2 2 2 4 2 1 2 2 2 3
13 8 9 8 6 5 6 6 6 5 5 4 5 5 5 6 5 5 5 4 4 4 4 4 3 3 2 2 2 2 3 3 3 2 2 2 6 7 15 14 14 11 9 5
9 7 6 6 5 5 5 5 6 6 6 5 5 5 5 5 5 6 4 4 4 4 4 3 3 3 2 2 2 2 3 3 3 3 3 4 4 3 4 11 15 15 14 12
6 6 7 6 7 5 5 5 6 6 7 8 8 6 4 4 4 4 5 4 4 3 3 3 3 3 2 2 2 2 2 7 2 2 2 3 3 3 3 6 5 6 12 11
6 5 6 5 5 5 4 5 6 7 8 7 7 7 5 4 5 4 4 3 3 3 4 3 3 3 3 3 3 3 3 3 2 2 3 4 4 3 4 5 4 3 6 13
6 5 5 6 6 5 5 5 6 7 7 6 6 6 7 3 4 4 3 3 4 5 4 3 3 3 3 3 3 3 3 5 4 3 4 4 4 4 5 4 4 3 4 5
7 8 6 7 6 6 5 5 5 5 5 5 4 4 5 3 4 5 5 4 3 4 3 3 3 3 2 3 3 4 4 4 5 4 5 5 5 5 5 5 5 6 6 8
5 5 5 5 5 5 5 4 4 4 4 4 3 4 4 4 5 4 4 4 3 4 3 3 2 2 2 3 4 4 5 5 5 4 5 5 5 5 5 5 6 7 7 7
4 5 4 4 4 4 4 4 4 4 4 3 5 5 5 5 4 4 4 4 4 5 4 3 4 3 3 4 4 4 5 5 5 6 4 5 4 4 5 5 6 5 5 5
4 4 4 4 4 4 4 4 3 4 3 4 4 5 6 5 5 4 3 4 4 4 3 3 4 3 3 4 5 4 5 5 5 5 5 4 3 3 3 8 5 5 5 5
5 4 4 4 4 4 4 3 4 4 4 3 5 6 6 5 6 3 4 5 3 3 3 5 3 3 3 4 5 4 4 5 5 6 5 4 3 3 4 4 5 5 5 6
5 4 4 4 4 4 3 3 3 3 4 4 5 5 5 4 4 4 3 4 3 6 3 3 4 4 3 5 4 5 5 5 5 6 6 5 4 3 3 3 3 3 4 4
4 4 4 4 5 5 4 4 3 3 4 4 5 5 5 5 5 5 5 3 2 4 3 3 4 5 6 4 3 4 4 4 5 5 5 5 5 4 2 2 2 3 2 3
4 4 4 4 5 5 5 4 4 4 3 3 3 4 4 5 5 4 2 3 6 6 3 2 4 7 8 4 4 4 4 4 4 4 4 8 5 4 3 3 2 2 3 5
4 4 4 4 4 4 4 3 3 4 4 4 4 4 4 4 5 4 4 3 5 4 3 5 6 7 4 4 4 4 4 4 4 4 3 3 3 4 4 3 2 2 2 2
5 5 4 4 5 4 4 4 4 4 3 4 4 5 4 3 3 3 4 5 3 4 3 4 5 5 4 4 3 3 3 4 4 4 4 3 3 2 2 3 3 3 3 3
6 7 5 5 5 4 3 4 4 4 4 4 5 4 3 2 2 3 4 2 3 3 3 3 4 5 4 4 4 3 3 3 6 3 3 3 3 2 2 2 3 3 3 3